Terug naar catalogus

STARLINK-33858

ActiefCommunicatieVLEO
NORAD 63885·PAYLOAD·🇺🇸 United States

Gelanceerd May 10, 2025 vanaf Vandenberg Space Force Base

Loading…

Volgende Passages (komende 24 uur)

TLE

VersSource: CelesTrak SupGP

Epoch: Sep 14, 2026, 22:52 UTC

1 63885C 25094X   26257.95326389  .00011548  00000+0  40173-3 0  2570
2 63885  69.9990 115.7404 0003270 271.6311 355.8632 15.29571518    16

Volg STARLINK-33858 in realtime met AllMySat

Download on the App Store